Regional Weather Roundup
Issued by NWS Upton, NY

Current Version | Previous Version | Text Only | Print | Product List | Glossary Off
Versions: 1 2 3 4 5 6 7 8 9 10 11 12 13 14 15 16 17 18 19 20 21 22 23 24 25 26 27 28 29 30 31 32 33 34 35 36 37 38 39 40 41 42 43 44 45 46 47 48 49 50
000 ASUS41 KOKX 261308 RWROKX REGIONAL WEATHER ROUNDUP NATIONAL WEATHER SERVICE NEW YORK NY 900 AM EDT WED APR 26 2017 NOTE: "FAIR" INDICATES FEW OR NO CLOUDS BELOW 12,000 FEET WITH NO SIGNIFICANT WEATHER AND/OR OBSTRUCTIONS TO VISIBILITY. NYZ071-072-176-178-NJZ106-104-261400- NEW YORK CITY METRO AREA CITY SKY/WX TMP DP RH WIND PRES REMARKS Central Park CLOUDY 54 53 97 VRB6 29.78S Wall St Helipt CLOUDY 55 54 94 NE16 29.75S Bronx Bot Gard N/A 54 54 100 N2 29.77R LaGuardia APRT LGT RAIN 55 52 89 NE10 29.76R FOG Kennedy INTL LGT RAIN 55 54 96 NE15 29.75S Breezy Point N/A 54 N/A N/A NE13G20 N/A Newark/Liberty LGT RAIN 54 54 100 N17 29.74F Teterboro LGT RAIN 56 54 93 N7 29.75S FOG $$ NYZ177-179-078>081-261400- LONG ISLAND NEW YORK CITY SKY/WX TMP DP RH WIND PRES REMARKS Jones Beach N/A 52 N/A N/A NE21 N/A Matinecock PT NOT AVBL Farmingdale CLOUDY 52 51 97 NE17G23 29.75S FOG MacArthur/ISP LGT RAIN 52 52 100 NE15 29.75S FOG Shirley LGT RAIN 52 51 97 N7 29.76S FOG Mt Sinai Harb N/A N/A N/A N/A N15 N/A Westhampton CLOUDY 54 52 93 E9G23 29.76S FOG East Hampton FOG 54 53 98 E10 29.76S VSB 1/4 Montauk NOT AVBL $$ NYZ052-065-067-261400- HUDSON VALLEY CITY SKY/WX TMP DP RH WIND PRES REMARKS White Plains CLOUDY 54 52 93 NE9 29.76R FOG Larchmont Harb N/A 52 N/A N/A NE10 N/A Croton O-T Hud N/A 54 N/A N/A N1G7 N/A Newburgh CLOUDY 54 54 100 NE9 29.81F FOG Montgomery CLOUDY 54 51 90 NE15G23 29.79F Poughkeepsie CLOUDY 53 51 93 N8 29.80S Albany DRIZZLE 52 50 93 N6 29.87F FOG $$ NJZ001-105-106-008-010-013-015-019>022-104-261400- NEW JERSEY CITY SKY/WX TMP DP RH WIND PRES REMARKS Newark/Liberty LGT RAIN 54 54 100 N17 29.74F Teterboro LGT RAIN 56 54 93 N7 29.75S FOG Caldwell LGT RAIN 55 54 96 NE6 29.76S Somerville CLOUDY 57 54 89 NE6 29.73R Linden CLOUDY 55 53 92 NE12 29.74S Sussex CLOUDY 53 52 96 NE12G20 29.79S Andover N/A 52 51 97 N9 29.77F Trenton CLOUDY 57 55 93 NE7 29.74R Millville CLOUDY 58 58 100 NE8 29.72R Atlantic City CLOUDY 57 55 93 N6 29.72R Wrightstown CLOUDY 56 55 97 NE5 29.71R Toms River CLOUDY 56 56 100 VRB5 29.74R FOG Belmar CLOUDY 54 53 97 NE12 29.75R FOG $$ PAZ047>061-062-071-261400- EASTERN PENNSYLVANIA CITY SKY/WX TMP DP RH WIND PRES REMARKS Philadelphia DRIZZLE 57 56 96 NE8 29.75R FOG Allentown CLOUDY 58 52 80 E10 29.76S Scranton CLOUDY 58 52 80 NE7 29.79R $$ CTZ002-004>006-009-010-012-RIZ004-006-007-MAZ004-011-015-261400- SOUTHERN NEW ENGLAND IN CT CITY SKY/WX TMP DP RH WIND PRES REMARKS Bradley INTL DRIZZLE 50 50 100 N14 29.85S FOG Hartford LGT RAIN 51 50 96 N9 29.84R FOG Danbury CLOUDY 51 51 100 NE9 29.81R Wtrbury/Oxford LGT RAIN 50 46 87 NE14G23 29.81S VSB 1 Bridgeport LGT RAIN 54 50 86 NE16 29.78R Meriden LGT RAIN 52 49 89 VRB6G17 29.82F FOG New Haven LGT RAIN 51 50 96 N14 29.79R FOG Chester FOG 54 54 100 N7 29.81S VSB 1 Groton FOG 57 56 96 NE12 29.79S VSB 1/4 Wilimantic LGT RAIN 53 51 93 N9 29.84F FOG IN RI CITY SKY/WX TMP DP RH WIND PRES REMARKS Providence CLOUDY 58 58 100 NE7 29.84F FOG Block Island NOT AVBL Westerly FOG 57 56 96 E12 29.80F VSB 1/4 IN MA CITY SKY/WX TMP DP RH WIND PRES REMARKS Boston LGT RAIN 51 51 100 NE10 29.90F VSB 1/4 Worcester LGT RAIN 46 44 93 N15 29.88F VSB 1 Westfield CLOUDY 50 50 100 N12 29.87R Provincetown LGT RAIN 57 57 100 SE16G23 29.88F Nantucket CLOUDY 55 54 96 SE25G36 29.83F FOG $$ ANZ330-335-338-340-345-350-353-355-261400- COASTAL MARINE OBSERVATIONS STATION/POSITION TIME SKY/WX TEMP WIND PRES VSBY WAVE AIR SEA DIR/SP/G HT/PER (UTC) (F) (DEG/KT/KT) (MB) (MI) (FT/S) NY HARB ENTRANCE 1150 50 47 20/ 12/ 14 1006.4 8/11 20 S FIRE ISLAND 1150 51 47 30/ 6/ 8 1005.8 10/11 GREAT SOUTH BAY 1230 52 55 30/ 14/ 16 N/A 23 SSW MONTAUK P 1150 49 45 1007.5 10/11 15 E BARNEGAT LI 1230 50 N/A 10/11 HUDSON CANYON 1150 53 47 130/ 8/ 8 1005.4 11/11 KINGS POINT 1248 53 48 90/ 4/ 9 1007.7 EXECUTION ROCKS NOT AVBL CENTRAL LI SOUND NOT AVBL EASTERN LI SOUND NOT AVBL ROBBINS REEF 1248 54 10/ 13/ 15 1007.1 $$ >>>>>>>>>>>>>>>>>>>>>>>>>>>> KEY <<<<<<<<<<<<<<<<<<<<<<<<<<< > < > SKY/WX - Sky Condition/Present Weather < > TMP - Temperature in Fahrenheit < > DP - Dew Point in Fahrenheit < > RH - Relative Humidity in Percent < > WIND - Direction (from) and Speed in MPH < > PRES - Mean Sea Level Pressure (inches of Hg) < > WCI - Wind Chill Index < > VSB - VISIBILITY IN MILES < > HX - HEAT INDEX < > TC - TEMPERATURE IN CELSIUS < > VRB - VARIABLE WIND DIRECTION < > < >>>>>>>>>>>>>>>>>>>>>>>>>>>> KEY <<<<<<<<<<<<<<<<<<<<<<<<<<<

USA.gov is the U.S. government's official web portal to all federal, state and local government web resources and services.